Regional Weather Roundup
Issued by NWS

Home | Current Version | Previous Version | Graphics & Text | Print | Product List | Glossary On
Versions: 1 2 3 4 5 6 7 8 9 10 11 12 13 14 15 16 17 18 19 20 21 22 23 24 25 26 27 28 29 30 31 32 33 34 35 36 37 38 39 40 41 42 43 44 45 46 47 48 49 50
000
ASUS43 KMPX 211110
RWRMN
WEATHER ROUNDUP FOR MINNESOTA
NATIONAL WEATHER SERVICE TWIN CITIES/CHANHASSEN MN
600 AM CDT MON APR 21 2014


NOTE: "FAIR" INDICATES FEW OR NO CLOUDS BELOW 12,000 FEET WITH NO
SIGNIFICANT WEATHER AND/OR OBSTRUCTIONS TO VISIBILITY. N/A MEANS
CURRENT SKY AND/OR WEATHER CONDITIONS ARE NOT AVAILABLE.

MNZ060>063-068>070-211200-
   Twin Cities Metro

CITY           SKY/WX    TMP DP  RH WIND       PRES   REMARKS
TWIN CITIES    LGT RAIN  58  57  97 S13G28    29.86F
ST PAUL        LGT RAIN  58  54  86 S17G29    29.85F
CRYSTAL        CLOUDY    59  54  83 NW17      29.89R
BLAINE         CLOUDY    59  57  94 W8        29.89R
EDEN PRAIRIE   LGT RAIN  59  56  89 S13       29.86F
LAKEVILLE      CLOUDY    54  52  94 S12       29.91F
SOUTH ST PAUL  LGT RAIN  58  56  94 SW16      29.88F
LAKE ELMO      LGT RAIN  55  55 100 S13       29.86F
$$
MNZ001>005-007-008-013>017-022>024-027-028-211200-
   Northwest Minnesota

CITY           SKY/WX    TMP DP  RH WIND       PRES   REMARKS
BEMIDJI        PTCLDY    48  33  55 W8        29.88F
HALLOCK        CLOUDY    36  34  93 NW20      29.96R
ROSEAU         MOCLDY    37  32  81 NW13      29.89R
WARROAD        PTCLDY    39  34  81 W12G18    29.86S
THIEF RVR FALL PTCLDY    37  30  75 NW16      29.94R
CROOKSTON      CLEAR     41  36  81 N16G25    29.97R
FOSSTON        CLEAR     45  34  65 W10       29.93R
DETROIT LAKES  CLEAR     50  34  53 NW14      29.96S
MOORHEAD       CLEAR     48  36  61 W13       29.98S
PARK RAPIDS    PTCLDY    42  34  73 W9        29.92S
$$
MNZ006-009>011-018-025>026-211200-
   North Central Minnesota

CITY           SKY/WX    TMP DP  RH WIND       PRES   REMARKS
BAUDETTE       PTCLDY    45  38  76 NW10      29.85R
FLAG ISLAND    MOCLDY    36  30  80 W22       29.83R
INTL FALLS     PTCLDY    42  31  64 SW7       29.82R
WASKISH        CLEAR     43  34  70 SW13      29.86R
BIG FORK       MOCLDY    45  30  57 S6        29.87S
LONGVILLE      MOCLDY    43  34  70 CALM      29.90S
GRAND RAPIDS   CLOUDY    46  30  53 SW5       29.89S
CRANE LAKE     CLOUDY    45  30  57 S5        29.85F
ORR            DRIZZLE   46  28  49 S3        29.83S
COOK           MOCLDY    50  30  46 S3        29.86F
$$
MNZ012-019>021-037-211200-
   Northeast Minnesota

CITY           SKY/WX    TMP DP  RH WIND       PRES   REMARKS
DULUTH         MOCLDY    46  29  51 NW5       29.90R
ELY            MOCLDY    45  27  49 S7        29.87F
HIBBING        MOCLDY    38  31  76 CALM      29.87F
EVELETH        MOCLDY    39  30  70 CALM      29.89F
DULUTH HARBOR  MOCLDY    36  32  87 CALM      29.92R
TWO HARBORS    PTCLDY    39  27  60 NW7       29.88
SILVER BAY     PTCLDY    28  28 100 CALM      29.87S
GRAND MARAIS     N/A     32  29  88 CALM      29.88F
G MARAIS ARPRT PTCLDY    39  25  56 CALM      29.88S
$$
MNZ029>031-032-039>041-046>048-054>057-064-211200-
   West Central Minnesota

CITY           SKY/WX    TMP DP  RH WIND       PRES   REMARKS
FERGUS FALLS   CLEAR     45  32  61 NW7       29.95S
WHEATON        CLEAR     48  37  66 W9        30.01R
MORRIS         CLEAR     46  36  66 NW13      29.96S
ALEXANDRIA     CLEAR     52  35  52 NW9       29.96S
ELBOW LAKE     FAIR      44  34  68 NW8       29.97S
WADENA         PTCLDY    46  34  61 W6        29.94S
GLENWOOD       PTCLDY    48  36  61 NW6       29.96R
APPLETON       CLEAR     48  36  61 NW9       29.96R
BENSON         CLEAR     46  36  66 N8        29.96R
ORTONVILLE     CLEAR     50  34  53 NW12      29.98R
MADISON        CLEAR     52  37  58 NW7       29.98R
WILLMAR        CLOUDY    54  46  76 NW12      29.95R
$$
MNZ033>034-036-042>043-049>051-058-059-211200-
   Central Minnesota

CITY           SKY/WX    TMP DP  RH WIND       PRES   REMARKS
ST CLOUD       PTCLDY    50  39  66 CALM      29.90F
SAUK CENTRE    PTSUNNY   52  36  55 NW7       29.94R
PAYNESVILLE    CLOUDY    52  42  68 CALM      29.93R
AITKIN         CLEAR     39  32  75 CALM      29.89S
PINE RIVER     CLOUDY    43  34  70 CALM      29.95S
BRAINERD       PTCLDY    58  33  39 W9        29.92F
STAPLES        PTCLDY    45  34  65 W6        29.93S
LONG PRAIRIE   CLOUDY    52  36  54 W8        29.94R
LITTLE FALLS   CLEAR     41  32  70 CALM      29.92S
LITCHFIELD     CLOUDY    57  52  82 NW6       29.93S
BUFFALO        MOCLDY    54  47  76 NW5       29.93R
MAPLE LAKE     MOCLDY    54  47  78 CALM      29.92F
$$
MNZ037-044-045-052-053-211200-
   East Central Minnesota

CITY           SKY/WX    TMP DP  RH WIND       PRES   REMARKS
PRINCETON        N/A     52  45  76 CALM      29.91F
MORA           PTCLDY    45  34  65 CALM      29.92F
CAMBRIDGE      MOCLDY    54  41  62 NW3       29.89R
RUSH CITY      CLOUDY    49  40  71 CALM      29.91R
MOOSE LAKE     PTCLDY    45  32  61 CALM      29.88F
HINCKLEY       FAIR      46  37  71 CALM      29.91F
CLOQUET        PTCLDY    45  28  53 CALM      29.89F
MCGREGOR       CLEAR     43  32  65 NW3       29.90S
$$
MNZ071>073-080-081-089-090-097-098-211200-
   Southwest Minnesota

CITY           SKY/WX    TMP DP  RH WIND       PRES   REMARKS
MONTEVIDEO     CLEAR     54  39  58 N14       29.96R
GRANITE FALLS  PTCLDY    51  46  82 NW9       29.96R
CANBY          CLEAR     50  38  62 NW9       29.99R
MARSHALL       PTCLDY    52  39  62 NW13      29.95R
REDWOOD FALLS  MOCLDY    56  52  86 N6        29.91F
OLIVIA         MOCLDY    54  50  87 CALM      29.91F
PIPESTONE      MOCLDY    52  39  62 N10       29.96R
WINDOM         CLOUDY    55  52  88 SW7       29.94R
WORTHINGTON    MOCLDY    55  46  71 NW9       29.95R
JACKSON        MOCLDY    59  52  77 SW8       29.94R
TRACY          MOCLDY    53  46  78 NW14      29.94R
SLAYTON        CLOUDY    54  44  70 NW20G26   29.93R
$$
MNZ065>067-074>077-082>085-091>093-211200-
   South Central Minnesota

CITY           SKY/WX    TMP DP  RH WIND       PRES   REMARKS
MANKATO        CLOUDY    57  54  88 E7        29.92R
NEW ULM        MOCLDY    55  55 100 NE7       29.90R
ST JAMES       MOCLDY    61  54  77 S6        29.91R
FAIRMONT       CLOUDY    61  52  72 SW16      29.91S
GLENCOE        CLOUDY    58  52  79 N16G22    29.90R
FARIBAULT      RAIN      57  54  88 W5        29.96R
OWATONNA       TSTM      55  52  88 SE5       29.94S
WASECA         TSTM      59  55  88 NE6       29.95R
ALBERT LEA     CLOUDY    57  55  94 CALM      29.91S THUNDER
$$
MNZ078>079-086>088-094>096-211200-
   Southeast Minnesota

CITY           SKY/WX    TMP DP  RH WIND       PRES   REMARKS
ROCHESTER      CLOUDY    57  52  83 NW12      29.95R
RED WING       CLOUDY    59  55  88 CALM      29.88S
STANTON        CLOUDY    57  53  87 SW8       29.93R
DODGE CENTER   TSTM      59  57  94 E3        29.95R
WINONA           N/A    N/A N/A N/A MISG        N/A
AUSTIN         CLOUDY    57  55  94 SE3       29.91F THUNDER
PRESTON        CLOUDY    56  55  96 SW7       29.92S
$$
ABBREVIATIONS USED IN REMARKS
   TC - TEMPERATURES IN CELSIUS
  WCI - WIND CHILL INDEX
   HX - HEAT INDEX
  VSB - VISIBILITY
$$



USA.gov is the U.S. government's official web portal to all federal, state and local government web resources and services.